Regional Weather Roundup
Issued by NWS Memphis, TN

Home | Current Version | Previous Version | Text Only | Print | Product List | Glossary On
Versions: 1 2 3 4 5 6 7 8 9 10 11 12 13 14 15 16 17 18 19 20 21 22 23 24 25 26 27 28 29 30 31 32 33 34 35 36 37 38 39 40 41 42 43 44 45 46 47 48 49 50
000
ASUS44 KMEG 251010
RWRMEG
MEMPHIS CWA HOURLY WEATHER ROUNDUP
NATIONAL WEATHER SERVICE MEMPHIS TN
500 AM CDT SAT MAR 25 2017

...WEST TENNESSEE...

CITY           SKY/WX    TMP DP  RH WIND       PRES   REMARKS
MEMPHIS INTL   RAIN      61  57  87 CALM      29.92F FOG
NWS MEMPHIS      N/A     62 N/A N/A MISG        N/A
JACKSON        PTCLDY    68  51  54 S13G23    29.97F
SOMERVILLE     CLOUDY    66  57  72 S9G17     29.94F
BOLIVAR        CLOUDY    66  52  59 SE13G20   29.97F
SAVANNAH       CLOUDY    66  52  59 S12G20    30.02F
DYERSBURG      LGT RAIN  56  55  97 E5        29.98F
PARIS          MOCLDY    63  52  67 S14G24    30.00R
HUNTINGDON     CLOUDY    66  54  63 S13G23    29.98R


...EASTERN ARKANSAS...

CITY           SKY/WX    TMP DP  RH WIND       PRES   REMARKS
JONESBORO      LGT RAIN  56  54  93 E14       29.87F
WEST MEMPHIS   HVY RAIN  57  57 100 CALM      29.92R FOG
BATESVILLE     CLOUDY    55  54  94 W9        29.88R
NEWPORT        CLOUDY    58  55  90 S13         N/A
WALNUT RIDGE   CLOUDY    55  52  88 E3        29.85F
BLYTHEVILLE    RAIN      56  56 100 SE10      29.96F
SEARCY         LGT RAIN  58  58 100 E5        29.85S
STUTTGART      CLOUDY    61  52  72 SE13      29.84F
PINE BLUFF     CLOUDY    61  59  93 S8        29.84S
MONTICELLO     CLOUDY    61  57  87 S12G21    29.87R


...NORTH MISSISSIPPI...

CITY           SKY/WX    TMP DP  RH WIND       PRES   REMARKS
TUPELO         CLOUDY    64  56  75 SE20G25   30.02F
OXFORD         CLOUDY    64  57  77 SW8G32    29.99R
BATESVILLE     LGT RAIN  61  56  83 S13G21    29.98R
TUNICA         RAIN      61  55  82 S9        29.92S
CLARKSDALE     MOCLDY    61  61 100 S12G22    29.93F
GREENWOOD      TSTM      59  58  96 SW13G18   30.01R VSB 3/4
COLUMBUS       CLOUDY    64  58  79 S18G25    30.04F
STARKVILLE     CLOUDY    63  59  88 S8        30.07R
GOLDEN TRIANGL CLOUDY    63  54  72 SE16G23   30.02F


...SOUTHEAST MISSOURI...

CITY           SKY/WX    TMP DP  RH WIND       PRES   REMARKS
KENNETT        LGT RAIN  55  55 100 SE10      29.93F
MALDEN         LGT RAIN  55  54  94 SE8       29.95S
WEST PLAINS    LGT RAIN  53  52  96 SE10      29.84F
POPLAR BLUFF   RAIN      55  54  96 SE12      29.93R
CAPE GIRARDEAU LGT RAIN  55  52  89 SE10      29.93S


...NORTHWEST ALABAMA...

CITY           SKY/WX    TMP DP  RH WIND       PRES   REMARKS
MUSCLE SHOALS  CLOUDY    65  52  62 S14       30.08F


...MIDDLE TENNESSEE...

CITY           SKY/WX    TMP DP  RH WIND       PRES   REMARKS
NASHVILLE      CLOUDY    66  51  58 S16G22    30.07F
CLARKSVILLE    CLOUDY    66  53  63 S16G26    30.02S
COLUMBIA       CLEAR     64  57  77 S13       30.06F


...WESTERN KENTUCKY...

CITY           SKY/WX    TMP DP  RH WIND       PRES   REMARKS
PADUCAH        LGT RAIN  56  52  86 SE6       29.98F
FORT CAMPBELL  MOCLDY    67  55  66 S13G21    30.01S


...CENTRAL ARKANSAS...

CITY           SKY/WX    TMP DP  RH WIND       PRES   REMARKS
LITTLE ROCK    CLOUDY    59  58  96 SE8       29.82F


SKY/WX REPORTED AS FAIR MEANS FEW OR NO CLOUDS BELOW
12 THOUSAND FEET.





USA.gov is the U.S. government's official web portal to all federal, state and local government web resources and services.